sat.trackr.live / text

‹ back to catalog

STARLINK-3073

NORAD 49135 · 2021-082F

PAYLOAD ACTIVE UNKNOWN

§ Identity

Operator
Country
US
Launch date
2021-09-14
Launch site
AFWTR
Launch vehicle
Mass (kg)
RCS (m²)

Purposes: comms

External: N2YO · Heavens-Above · Gunter

§ Orbital elements

Epoch: 2026-05-25T04:41:21.239808Z

Period
96.11 min
Inclination
70.0004°
Eccentricity
0.0002792
Mean motion
14.98331369 rev/d
Perigee alt
570.1 km
Apogee alt
574.0 km
Semi-major
6,950.2 km
B*
2.7871e-5
RAAN
61.5401°
Arg perigee
269.0721°
Mean anomaly
91.0119°
Rev number
25,843

§ Raw data

STARLINK-30731 49135U 21082F   26145.19538472  .00000240  00000+0  27871-4 0  99962 49135  70.0004  61.5401 0002792 269.0721  91.0119 14.98331369258439

JSON: /api/v1/satellites/49135 · /tle

For live sub-satellite position, see the globe view (requires WebGL).

§ Visibility from observer

Set your observer location to see the next 7 days of passes ≥ 10°. The values pass through the URL so the page stays shareable.

No JS? Fill the form by hand. The geolocation button needs JavaScript.